Chicago Executive, IL

12:32 AM CST on December 06, 2019 (GMT -0600)
Chicago Executive

Weather History for KPWK - September, 2019

Change the Weather History Date:

Sunday, September 22, 2019

  Actual Average Record
Temperature  
Mean Temperature 74 °F 62 °F  
Max Temperature 79 °F 72 °F 96 °F (2017)
Min Temperature 68 °F 51 °F 39 °F (1999)
Degree Days  
Heating Degree Days 0 5  
Month to date heating degree days 2 50  
Since 1 July heating degree days 2 60  
Cooling Degree Days 8 1  
Month to date cooling degree days 148 71  
Year to date cooling degree days 955 768  
Growing Degree Days 24 (Base 50)    
Moisture  
Dew Point 67 °F    
Average Humidity 84    
Maximum Humidity 91    
Minimum Humidity 64    
Precipitation  
Precipitation 0.99 in 0.09 in 1.81 in (2000)
Month to date precipitation 5.50 2.28  
Year to date precipitation 34.82 24.76  
Sea Level Pressure  
Sea Level Pressure 29.85 in    
Wind  
Wind Speed 10 mph ()    
Max Wind Speed 22 mph    
Max Gust Speed 35 mph    
Visibility 7.7 miles    
Events Rain    
T = Trace of Precipitation, MM = Missing Value Source: Averaged Metar Reports

Daily Weather History Graph

Daily Weather History Graph

Search for Another Location

Airport or City:

Astronomy

Sep. 22, 2019 Rise Set
Actual Time 6:38 AM CDT 6:49 PM CDT
Civil Twilight 6:10 AM CDT 7:17 PM CDT
Nautical Twilight 5:38 AM CDT 7:49 PM CDT
Astronomical Twilight 5:04 AM CDT 8:23 PM CDT
Moon No Moon Rise 2:51 PM CDT (9/22)
Length of Visible Light 13h 06m
Length of Day
12h 10m
Last Quarter, 44% of the Moon is Illuminated
Sep 22
Last Quarter
Sep 28
New
Oct 5
First Quarter
Oct 13
Full
Oct 21
Last Quarter

Hourly Weather History & Observations

Time (CDT) Temp. Dew Point Humidity Pressure Visibility Wind Dir Wind Speed Gust Speed Precip Events Conditions
12:52 AM 73.0 °F 68.0 °F 84% 29.99 in 10.0 mi SSW 13.8 mph 21.9 mph N/A   Mostly Cloudy
1:52 AM 73.0 °F 68.0 °F 84% 29.98 in 10.0 mi South 10.4 mph - N/A   Mostly Cloudy
2:52 AM 73.0 °F 66.9 °F 81% 29.96 in 10.0 mi SSW 15.0 mph - N/A   Scattered Clouds
3:52 AM 73.0 °F 68.0 °F 84% 29.95 in 10.0 mi South 13.8 mph - N/A   Scattered Clouds
4:28 AM 73.9 °F 68.0 °F 82% 29.96 in 10.0 mi South 12.7 mph 21.9 mph N/A   Overcast
4:52 AM 73.0 °F 69.1 °F 87% 29.94 in 7.0 mi South 11.5 mph - 0.06 in Rain Light Rain
5:52 AM 73.0 °F 68.0 °F 84% 29.93 in 10.0 mi South 12.7 mph - 0.00 in   Overcast
6:52 AM 73.0 °F 66.9 °F 81% 29.93 in 10.0 mi South 8.1 mph - N/A   Overcast
7:52 AM 72.0 °F 66.9 °F 84% 29.92 in 10.0 mi SSW 10.4 mph - 0.02 in   Overcast
8:52 AM 73.9 °F 68.0 °F 82% 29.90 in 10.0 mi South 12.7 mph - N/A   Mostly Cloudy
9:52 AM 75.9 °F 66.0 °F 71% 29.89 in 10.0 mi SSW 17.3 mph 24.2 mph N/A   Mostly Cloudy
10:52 AM 77.0 °F 64.9 °F 66% 29.88 in 10.0 mi SSW 15.0 mph 32.2 mph N/A   Clear
11:52 AM 78.1 °F 64.9 °F 64% 29.87 in 10.0 mi SW 18.4 mph 32.2 mph N/A   Mostly Cloudy
12:52 PM 77.0 °F 66.0 °F 69% 29.87 in 10.0 mi SSW 12.7 mph 32.2 mph 0.00 in Rain Light Rain
1:04 PM 75.9 °F 66.0 °F 71% 29.88 in 10.0 mi SW 11.5 mph 24.2 mph 0.00 in   Overcast
1:52 PM 73.9 °F 66.9 °F 79% 29.86 in 10.0 mi SSW 12.7 mph 24.2 mph 0.01 in Rain Light Rain
2:42 PM 73.9 °F 69.1 °F 85% 29.86 in 10.0 mi SW 8.1 mph - 0.00 in   Overcast
2:52 PM 73.9 °F 68.0 °F 82% 29.85 in 10.0 mi SSW 8.1 mph 20.7 mph 0.00 in Rain Light Rain
3:04 PM 73.9 °F 68.0 °F 82% 29.86 in 10.0 mi SSW 10.4 mph 18.4 mph 0.00 in Rain Light Rain
3:33 PM 73.9 °F 68.0 °F 82% 29.86 in 10.0 mi SW 9.2 mph - 0.01 in Rain Light Rain
3:52 PM 73.9 °F 68.0 °F 82% 29.83 in 10.0 mi SSW 9.2 mph - 0.01 in Rain Light Rain
4:11 PM 73.9 °F 68.0 °F 82% 29.83 in 10.0 mi SSW 8.1 mph - 0.00 in   Overcast
4:20 PM 73.0 °F 68.0 °F 84% 29.83 in 10.0 mi SSW 8.1 mph - 0.00 in   Overcast
4:29 PM 73.0 °F 68.0 °F 84% 29.83 in 10.0 mi SSW 11.5 mph - 0.00 in   Overcast
4:52 PM 73.0 °F 66.9 °F 81% 29.81 in 10.0 mi South 9.2 mph - 0.00 in Rain Light Rain
5:14 PM 72.0 °F 68.0 °F 87% 29.83 in 2.0 mi SSW 8.1 mph - 0.10 in Rain Rain
5:18 PM 72.0 °F 68.0 °F 87% 29.82 in 3.0 mi SSW 5.8 mph - 0.10 in Rain Rain
5:39 PM 72.0 °F 68.0 °F 87% 29.81 in 4.0 mi South 5.8 mph - 0.14 in Rain Light Rain
5:43 PM 72.0 °F 68.0 °F 87% 29.80 in 2.0 mi South 8.1 mph - 0.15 in Rain Rain
5:52 PM 72.0 °F 68.0 °F 87% 29.79 in 2.0 mi South 6.9 mph - 0.18 in Rain Light Rain
5:59 PM 72.0 °F 69.1 °F 91% 29.81 in 1.8 mi South 8.1 mph - 0.06 in Rain Rain
6:07 PM 72.0 °F 68.0 °F 87% 29.80 in 0.8 mi South 12.7 mph 21.9 mph 0.22 in Rain Heavy Rain
6:15 PM 72.0 °F 68.0 °F 87% 29.80 in 1.0 mi South 10.4 mph - 0.34 in Rain Heavy Rain
6:20 PM 72.0 °F 68.0 °F 87% 29.80 in 1.2 mi South 11.5 mph - 0.40 in Rain Heavy Rain
6:33 PM 71.1 °F 68.0 °F 90% 29.79 in 1.0 mi SSW 6.9 mph - 0.60 in Rain Heavy Rain
6:42 PM 71.1 °F 68.0 °F 90% 29.79 in 1.5 mi SW 8.1 mph - 0.66 in Rain Heavy Rain
6:50 PM 71.6 °F 68.0 °F 88% 29.79 in 2.0 mi SW 6.9 mph - 0.69 in Rain Rain
6:51 PM 71.1 °F 68.0 °F 90% 29.78 in 2.0 mi SW 6.9 mph - 0.70 in Rain Rain
7:01 PM 71.1 °F 68.0 °F 90% 29.79 in 8.0 mi WSW 6.9 mph - 0.00 in Rain Light Rain
7:08 PM 72.0 °F 68.0 °F 87% 29.80 in 10.0 mi West 6.9 mph - 0.00 in   Overcast
7:52 PM 69.1 °F 66.0 °F 90% 29.81 in 9.0 mi WNW 3.5 mph - 0.00 in Rain Light Rain
7:55 PM 69.1 °F 66.0 °F 90% 29.82 in 9.0 mi West 3.5 mph - 0.01 in Rain Light Rain
8:19 PM 69.1 °F 64.9 °F 87% 29.83 in 10.0 mi West 3.5 mph - 0.01 in   Overcast
8:52 PM 69.1 °F 64.9 °F 87% 29.82 in 10.0 mi West 5.8 mph - 0.01 in   Overcast
9:36 PM 69.1 °F 64.9 °F 87% 29.85 in 10.0 mi Variable 4.6 mph - N/A   Overcast
9:52 PM 69.1 °F 64.9 °F 87% 29.85 in 10.0 mi WSW 4.6 mph - N/A   Overcast
10:52 PM 68.0 °F 64.9 °F 90% 29.85 in 10.0 mi WSW 3.5 mph - N/A   Mostly Cloudy
11:30 PM 68.0 °F 64.0 °F 87% 29.87 in 10.0 mi WSW 4.6 mph - N/A   Mostly Cloudy
11:40 PM 68.0 °F 64.0 °F 87% 29.87 in 10.0 mi WNW 4.6 mph - N/A   Scattered Clouds
11:52 PM 68.0 °F 64.0 °F 87% 29.86 in 10.0 mi West 4.6 mph - N/A   Mostly Cloudy